sat.trackr.live / text

‹ back to catalog

STARLINK-31720

NORAD 59497 · 2024-071P

PAYLOAD ACTIVE UNKNOWN

§ Identity

Operator
Country
US
Launch date
2024-04-13
Launch site
AFETR
Launch vehicle
Mass (kg)
RCS (m²)

Purposes: comms

External: N2YO · Heavens-Above · Gunter

§ Orbital elements

Epoch: 2026-05-24T16:35:22.009344Z

Period
94.27 min
Inclination
43.0011°
Eccentricity
0.0001399
Mean motion
15.27578969 rev/d
Perigee alt
482.1 km
Apogee alt
484.0 km
Semi-major
6,861.2 km
B*
1.1067e-7
RAAN
270.9989°
Arg perigee
273.6425°
Mean anomaly
86.4266°
Rev number
11,982

§ Raw data

STARLINK-317201 59497U 24071P   26144.69122696 -.00000259  00000+0  11067-6 0  99932 59497  43.0011 270.9989 0001399 273.6425  86.4266 15.27578969119822

JSON: /api/v1/satellites/59497 · /tle

For live sub-satellite position, see the globe view (requires WebGL).

§ Visibility from observer

Set your observer location to see the next 7 days of passes ≥ 10°. The values pass through the URL so the page stays shareable.

No JS? Fill the form by hand. The geolocation button needs JavaScript.